Location: Emory University Observatory
(33.7903°N, 84.3267°W)
Time: 07:15:41
(UTC-04:00)

Tiangong 2 - Pass Details

Date: 16 October 2017
Orbit: 388 x 392 km, 42.8° (Epoch: 18 October)

Event Time Altitude Azimuth Distance (km) Brightness Sun altitude
Exits shadow 06:13:06 17° 357° (N) 1,083 3.3 -19.5°
Maximum altitude 06:13:31 17° 7° (N) 1,070 3.4 -19.4°
Drops below altitude 10° 06:15:44 10° 51° (NE) 1,419 4.7 -18.9°
Sets 06:18:18 0° 72° (ENE) 2,274 6.4 -18.4°
